[[{"header":{"parameterUnit":"m.s-1","parameterCategory":1,"la1":30.2991,"la2":30.254,"lo1":-89.0895,"lo2":-89.0444,"dy":0.0017,"dx":0.0017,"nx":28,"ny":28,"refTime":"2025-06-05T21:00:00:Z","depth":0,"parameterNumber":2,"parameterNumberName":"U-component_of_WINDS"},"data":[0,0,0,0,0,0,0,0,0,0,0,0,0,0,0,0,0,0,0,0,0,0,0,0,0,0,0,0,0,0,0,0,0,0,0,0,0,0,0,0,0,0,0,0,0,0,0,0,0,0,0,0,0,0,0,0,0,0,1.771,1.7711,0,1.7775,1.7776,1.7777,1.7803,1.7803,1.7803,1.7803,1.7874,1.7876,1.7878,0,0,0,0,0,0,0,0,0,0,0,0,0,1.7611,1.7612,1.771,1.7711,1.7711,1.7775,1.7776,1.7777,1.7803,1.7803,1.7803,1.7803,1.7873,1.7875,1.7878,0,0,0,0,0,0,0,0,0,0,0,0,0,1.7663,1.7613,1.771,1.7732,1.7735,1.7775,1.7776,1.7777,1.7803,1.7803,1.7803,1.7803,1.7872,1.7875,1.7878,1.7902,0,0,1.7888,1.7889,0,0,0,0,0,0,0,0,1.766,1.7666,1.7728,1.7731,1.7734,1.7781,1.7767,1.7819,1.7803,1.7777,1.7803,1.7802,1.7843,1.7849,1.7862,1.7905,1.7909,1.7888,1.789,1.7891,1.7892,0,0,0,0,0,0,0,1.7656,1.7664,1.7736,1.7729,1.7732,1.774,1.7747,1.7777,1.7811,1.778,1.7782,1.7789,1.7845,1.7859,1.7863,1.791,1.7888,1.789,1.7892,1.7894,1.7977,1.7977,0,0,0,0,0,0,1.7648,1.7661,1.7734,1.7738,1.7695,1.7742,1.775,1.7766,1.7811,1.7817,1.7789,1.779,1.7853,1.786,1.7866,1.7897,1.7891,1.7894,1.7896,1.7976,1.7977,1.7977,0,0,0,0,0,0,1.7646,1.7655,1.7731,1.77,1.771,1.7744,1.7762,1.7767,1.7781,1.7818,1.7824,1.7797,1.7854,1.7862,1.7893,1.79,1.7895,1.7898,1.7976,1.7976,1.7977,1.7959,0,0,0,0,0,0,1.7643,1.7654,1.7662,1.77,1.7712,1.7756,1.7762,1.7769,1.7786,1.7788,1.7827,1.7833,1.7854,1.7888,1.7896,1.7904,1.79,1.7975,1.7976,1.7977,1.7959,1.7959,1.7959,0,0,0,0,0,1.764,1.7655,1.7663,1.7671,1.7723,1.7756,1.7763,1.7786,1.7786,1.7796,1.7819,1.7832,1.7898,1.7891,1.79,1.7909,1.7975,1.7976,1.7977,1.7959,1.7959,1.7959,0,0,0,0,0,0,1.7619,1.7661,1.7669,1.7697,1.7723,1.776,1.7773,1.7785,1.7811,1.7812,1.784,1.7849,1.7877,1.7897,1.7888,1.7935,1.7937,1.794,1.7921,1.7921,1.7921,1.7916,1.7903,0,0,0,0,0,1.7618,1.764,1.7675,1.7697,1.7709,1.7739,1.7754,1.7769,1.7797,1.7808,1.7834,1.7862,1.7889,1.7906,1.7933,1.7962,1.7971,1.7973,1.7973,1.7972,1.7974,1.7991,1.7993,1.798,1.798,1.798,0,0,1.7615,1.7641,1.7653,1.7694,1.7715,1.7738,1.7748,1.7772,1.779,1.7813,1.7843,1.7863,1.7896,1.7926,1.794,1.7943,1.798,1.7973,1.7973,1.7975,1.7992,1.7994,1.7995,1.798,1.798,1.798,0,0,1.7623,1.7644,1.7664,1.7685,1.7717,1.7737,1.7742,1.7778,1.7791,1.7822,1.7839,1.7862,1.7908,1.793,1.7948,1.7964,1.7976,1.7972,1.7971,1.7987,1.7988,1.7989,1.7995,1.7997,1.7974,1.7974,1.7974,0,1.7616,1.7651,1.7673,1.7697,1.7714,1.7734,1.7756,1.7776,1.7815,1.7827,1.7829,1.7887,1.791,1.7946,1.795,1.7963,1.797,1.7968,1.7986,1.7987,1.7988,1.7994,1.7996,1.7973,1.7973,1.7973,1.7973,0,1.7641,1.7665,1.7678,1.7714,1.7733,1.7755,1.7782,1.7799,1.7812,1.7832,1.7863,1.7892,1.7925,1.7935,1.7949,1.7973,1.7973,1.798,1.7983,1.7988,1.7994,1.7997,1.7972,1.7972,1.7972,1.7973,0,0,1.7637,1.7686,1.769,1.7707,1.7744,1.7763,1.7787,1.7818,1.7831,1.7858,1.7879,1.7917,1.7924,1.7943,1.796,1.7975,1.7985,1.798,1.7981,1.798,1.8014,1.8008,1.801,1.7994,1.7994,1.7995,1.8011,0,1.765,1.7691,1.7712,1.7745,1.7768,1.7788,1.7808,1.7834,1.7853,1.7876,1.7897,1.7924,1.793,1.7942,1.7957,1.7981,1.7993,1.798,1.8014,1.8015,1.8005,1.8013,1.8008,1.8022,1.8013,1.8014,1.8014,0,1.767,1.7695,1.7729,1.7764,1.7774,1.7792,1.7822,1.7844,1.7873,1.7886,1.7908,1.7924,1.7951,1.7952,1.7989,1.798,1.7995,1.8009,1.801,1.8014,1.8015,1.8018,1.8026,1.8028,1.8018,1.8018,1.8017,0,1.7663,1.7706,1.7733,1.7746,1.7787,1.7799,1.7817,1.7846,1.7863,1.789,1.7902,1.7932,1.7948,1.7972,1.7996,1.7995,1.8031,1.8034,1.8043,1.8043,1.805,1.8049,1.8061,1.806,1.806,1.806,1.806,0,1.7675,1.7695,1.773,1.7746,1.777,1.7795,1.7818,1.7838,1.7863,1.7884,1.7904,1.7923,1.7954,1.7978,1.7998,1.8025,1.8033,1.8045,1.805,1.8043,1.8041,1.8053,1.8053,1.806,1.806,1.806,1.806,0,1.7672,1.7696,1.7726,1.7762,1.7771,1.7787,1.7818,1.7835,1.7855,1.7881,1.7889,1.7921,1.795,1.7976,1.8015,1.8028,1.8056,1.8063,1.8046,1.8049,1.8056,1.8055,1.8076,1.808,1.8076,1.8076,1.8076,0,1.7677,1.7694,1.7731,1.7746,1.7763,1.7787,1.7804,1.7829,1.7847,1.7882,1.7895,1.7925,1.795,1.7995,1.8023,1.8053,1.806,1.8065,1.8065,1.8057,1.806,1.8059,1.8061,1.8065,1.8065,1.8065,1.8065,0,1.7685,1.7696,1.772,1.7748,1.7768,1.7792,1.7817,1.7828,1.7858,1.7877,1.7906,1.7926,1.7965,1.7995,1.8028,1.8047,1.8061,1.8064,1.8068,1.8062,1.8051,1.8057,1.8045,1.8064,1.8064,1.8064,1.8064,1.8064,1.7687,1.7702,1.773,1.7757,1.7777,1.78,1.7817,1.7839,1.7863,1.7896,1.791,1.794,1.7969,1.8015,1.8034,1.8058,1.8061,1.8067,1.8068,1.8069,1.8068,1.8047,1.8064,1.8065,1.8065,1.8065,1.8065,0,1.7695,1.7714,1.7738,1.7771,1.7792,1.7802,1.783,1.7847,1.7872,1.7898,1.7923,1.7956,1.7985,1.8014,1.8045,1.8059,1.8066,1.8066,1.8066,1.807,1.8063,1.8057,1.806,1.806,1.806,1.806,1.806,1.806,1.7702,1.7728,1.7743,1.778,1.7799,1.7828,1.7843,1.7864,1.7884,1.7921,1.7944,1.7963,1.799,1.8023,1.8051,1.8058,1.8069,1.8067,1.8077,1.807,1.807,1.807,1.8065,1.8069,1.8069,1.8082,1.8082,1.8082]},{"header":{"parameterUnit":"m.s-1","parameterCategory":1,"la1":30.2991,"la2":30.254,"lo1":-89.0895,"lo2":-89.0444,"dy":0.0017,"dx":0.0017,"nx":28,"ny":28,"refTime":"2025-06-05T21:00:00:Z","depth":0,"parameterNumber":3,"parameterNumberName":"V-component_of_WINDS"},"data":[0,0,0,0,0,0,0,0,0,0,0,0,0,0,0,0,0,0,0,0,0,0,0,0,0,0,0,0,0,0,0,0,0,0,0,0,0,0,0,0,0,0,0,0,0,0,0,0,0,0,0,0,0,0,0,0,0,0,3.1704,3.1704,0,3.1684,3.1683,3.1683,3.1712,3.1713,3.1714,3.1715,3.1688,3.1686,3.1685,0,0,0,0,0,0,0,0,0,0,0,0,0,3.1762,3.1761,3.1704,3.1704,3.1704,3.1684,3.1683,3.1683,3.1712,3.1713,3.1714,3.1716,3.1689,3.1687,3.1685,0,0,0,0,0,0,0,0,0,0,0,0,0,3.1738,3.176,3.1704,3.1716,3.1717,3.1684,3.1683,3.1683,3.1712,3.1713,3.1715,3.1716,3.1689,3.1687,3.1684,3.1637,0,0,3.1677,3.1676,0,0,0,0,0,0,0,0,3.174,3.1736,3.1714,3.1715,3.1716,3.1702,3.1694,3.1667,3.1711,3.1713,3.1715,3.1717,3.1691,3.1689,3.1681,3.1636,3.1635,3.1676,3.1675,3.1674,3.1673,0,0,0,0,0,0,0,3.1741,3.1737,3.1696,3.1714,3.1715,3.172,3.1718,3.1689,3.1693,3.1713,3.1715,3.1713,3.1692,3.1683,3.1681,3.1635,3.1676,3.1674,3.1673,3.1672,3.1548,3.1546,0,0,0,0,0,0,3.1742,3.1739,3.1696,3.1695,3.1732,3.1718,3.1716,3.1705,3.1694,3.1694,3.1712,3.1714,3.1687,3.1684,3.168,3.1623,3.1674,3.1671,3.167,3.155,3.1548,3.1546,0,0,0,0,0,0,3.1744,3.1738,3.1697,3.1717,3.1713,3.1715,3.1702,3.1704,3.1695,3.1693,3.1693,3.1703,3.1688,3.1683,3.1648,3.1622,3.167,3.1668,3.1552,3.1549,3.1547,3.1509,0,0,0,0,0,0,3.1745,3.1739,3.1722,3.1717,3.1712,3.1667,3.1701,3.1702,3.1692,3.1695,3.1684,3.1684,3.1689,3.1651,3.1645,3.162,3.1666,3.1554,3.1551,3.1548,3.1513,3.1505,3.1499,0,0,0,0,0,3.1747,3.1712,3.1721,3.1716,3.1691,3.1666,3.1663,3.1671,3.169,3.1672,3.167,3.1684,3.1626,3.1648,3.1641,3.1614,3.1556,3.1552,3.1548,3.1515,3.1507,3.15,0,0,0,0,0,0,3.1712,3.1711,3.1722,3.1684,3.1675,3.1671,3.1649,3.1661,3.1645,3.1649,3.1658,3.1655,3.1617,3.1612,3.1636,3.1567,3.1594,3.1588,3.1572,3.1563,3.1557,3.1558,3.1664,0,0,0,0,0,3.17,3.1681,3.1681,3.1647,3.1643,3.1647,3.1636,3.1643,3.1633,3.1629,3.1624,3.1613,3.1592,3.1577,3.1558,3.1512,3.1509,3.1491,3.1484,3.1479,3.1473,3.1447,3.1438,3.1533,3.1533,3.1533,0,0,3.1675,3.1672,3.1659,3.164,3.1634,3.1612,3.1643,3.1619,3.1602,3.1624,3.1591,3.1587,3.1574,3.1533,3.1515,3.1528,3.1446,3.1474,3.1469,3.1467,3.1442,3.1433,3.1425,3.153,3.1531,3.1531,0,0,3.1617,3.1614,3.1585,3.1579,3.157,3.1573,3.1566,3.156,3.1559,3.1526,3.1541,3.1521,3.1485,3.1475,3.1465,3.1403,3.1415,3.1396,3.1361,3.1335,3.1328,3.1321,3.1297,3.1289,3.1391,3.1391,3.1391,0,3.1586,3.1556,3.1568,3.1543,3.1533,3.1555,3.1524,3.1517,3.1501,3.1492,3.1508,3.1463,3.1456,3.1412,3.1397,3.1389,3.1379,3.1397,3.1329,3.1322,3.1316,3.1293,3.1284,3.1389,3.1389,3.1389,3.139,0,3.1517,3.1496,3.1474,3.146,3.1448,3.142,3.1426,3.1412,3.142,3.142,3.1385,3.1378,3.1356,3.1347,3.1354,3.1303,3.1311,3.1328,3.1354,3.1304,3.1283,3.1275,3.1386,3.1386,3.1387,3.1388,0,0,3.1436,3.143,3.1421,3.1415,3.1406,3.1389,3.1361,3.1343,3.1329,3.1318,3.1293,3.1262,3.1277,3.1266,3.1272,3.125,3.1199,3.1268,3.1268,3.1254,3.114,3.1127,3.1117,3.1208,3.1206,3.1205,3.1141,0,3.1377,3.1332,3.1342,3.1296,3.1275,3.1295,3.1271,3.1262,3.1261,3.1242,3.1241,3.1218,3.1241,3.1234,3.1213,3.121,3.1176,3.1215,3.1182,3.1181,3.1183,3.1106,3.1092,3.1032,3.1133,3.1131,3.113,0,3.1303,3.129,3.1242,3.1237,3.1228,3.1207,3.119,3.1172,3.1161,3.1163,3.115,3.116,3.113,3.1159,3.1116,3.1143,3.113,3.1126,3.1124,3.112,3.1151,3.1098,3.1013,3.1004,3.1118,3.1119,3.112,0,3.1246,3.1217,3.1184,3.1178,3.1171,3.1155,3.1151,3.1142,3.113,3.1115,3.1106,3.1087,3.1076,3.1059,3.1063,3.1084,3.1019,3.1048,3.1017,3.1017,3.1001,3.1002,3.0911,3.0996,3.0996,3.0996,3.0996,0,3.1178,3.1148,3.1159,3.1138,3.1104,3.1116,3.1081,3.1079,3.1071,3.1049,3.1065,3.1043,3.105,3.1029,3.1031,3.0995,3.099,3.0988,3.0989,3.0986,3.0986,3.0976,3.098,3.0994,3.0994,3.0995,3.0995,0,3.1108,3.1115,3.108,3.1077,3.1075,3.105,3.1046,3.1026,3.1028,3.1,3.0993,3.0994,3.097,3.0973,3.0944,3.0946,3.09,3.0906,3.0904,3.0905,3.0873,3.0875,3.0772,3.0758,3.0853,3.0852,3.0851,0,3.1064,3.1041,3.1036,3.1023,3.1019,3.0998,3.0986,3.0996,3.0982,3.0968,3.0949,3.0927,3.0909,3.0868,3.0864,3.0843,3.0847,3.0813,3.0844,3.0841,3.0845,3.0845,3.0842,3.0806,3.0805,3.0804,3.0803,0,3.0984,3.0988,3.0971,3.0955,3.0941,3.0929,3.0917,3.0906,3.0914,3.0898,3.0874,3.086,3.0832,3.0808,3.0787,3.0781,3.0792,3.0794,3.0785,3.0781,3.078,3.0778,3.0885,3.0796,3.0796,3.0797,3.0797,3.0798,3.0924,3.0904,3.0897,3.0878,3.0871,3.086,3.0841,3.0841,3.0821,3.0801,3.0807,3.0779,3.0768,3.0742,3.0733,3.071,3.0722,3.071,3.0706,3.0702,3.0698,3.0785,3.0706,3.0706,3.0706,3.0707,3.0707,0,3.0843,3.084,3.0822,3.0807,3.0791,3.0806,3.0794,3.0779,3.0755,3.0745,3.0727,3.0699,3.0676,3.0671,3.0649,3.0631,3.0635,3.0624,3.0625,3.0622,3.0689,3.0698,3.0621,3.0621,3.0621,3.0621,3.0621,3.0621,3.0799,3.0766,3.077,3.0733,3.073,3.0704,3.0696,3.0685,3.0677,3.0645,3.0627,3.0625,3.0616,3.0593,3.0571,3.057,3.056,3.0547,3.0548,3.0609,3.0618,3.0626,3.0635,3.0545,3.0545,3.0483,3.0482,3.0482]}]]